| time (UTC) | temp C | wind direction | speed KPH | gust KPH | rain 1hr cm | rain 24hr cm | rain mn cm | humidity % | barometer mb |
| 20260901140423 | 25 | 235 | 3.2 | 9.7 | 0.00 | 0.10 | 0.00 | 85 | 1011.9 |
| 20260901140405 | 24 | 215 | 4.8 | 9.7 | 0.00 | 0.10 | 0.00 | 86 | 1012.2 |
| 20260901135423 | 24 | 219 | 6.4 | 12.9 | 0.00 | 0.10 | 0.00 | 86 | 1012.2 |
| 20260901134923 | 24 | 231 | 4.8 | 12.9 | 0.00 | 0.10 | 0.00 | 87 | 1012.2 |
| 20260901134422 | 23 | 236 | 4.8 | 11.3 | 0.00 | 0.10 | 0.00 | 88 | 1012.2 |
| 20260901133926 | 23 | 241 | 4.8 | 11.3 | 0.00 | 0.10 | 0.00 | 89 | 1012.2 |
| 20260901133425 | 23 | 217 | 3.2 | 8.0 | 0.00 | 0.10 | 0.00 | 89 | 1012.2 |
| 20260901132920 | 23 | 186 | 3.2 | 8.0 | 0.00 | 0.10 | 0.00 | 89 | 1012.4 |
| 20260901132404 | 23 | 229 | 3.2 | 6.4 | 0.00 | 0.10 | 0.00 | 89 | 1012.4 |
| 20260901131852 | 23 | 223 | 3.2 | 6.4 | 0.00 | 0.10 | 0.00 | 89 | 1012.4 |
| 20260901131347 | 23 | 227 | 4.8 | 11.3 | 0.00 | 0.10 | 0.00 | 89 | 1012.4 |
| 20260901131106 | 23 | 220 | 4.8 | 11.3 | 0.00 | 0.10 | 0.00 | 89 | 1012.4 |
| 20260901130330 | 23 | 233 | 4.8 | 9.7 | 0.00 | 0.10 | 0.00 | 89 | 1012.4 |
| 20260901125829 | 23 | 223 | 3.2 | 9.7 | 0.00 | 0.10 | 0.00 | 89 | 1012.3 |
| 20260901125543 | 23 | 235 | 4.8 | 8.0 | 0.00 | 0.10 | 0.00 | 89 | 1012.3 |
| 20260901124818 | 23 | 194 | 4.8 | 9.7 | 0.00 | 0.10 | 0.00 | 89 | 1012.3 |
| 20260901124537 | 23 | 221 | 4.8 | 11.3 | 0.00 | 0.10 | 0.00 | 89 | 1012.2 |
| 20260901123805 | 22 | 247 | 4.8 | 11.3 | 0.00 | 0.10 | 0.00 | 90 | 1012.2 |
| 20260901123300 | 22 | 197 | 4.8 | 11.3 | 0.00 | 0.10 | 0.00 | 90 | 1012.2 |
| 20260901122748 | 22 | 227 | 4.8 | 9.7 | 0.00 | 0.10 | 0.00 | 90 | 1011.9 |
| 20260901122246 | 22 | 279 | 3.2 | 6.4 | 0.00 | 0.10 | 0.00 | 90 | 1011.9 |
| 20260901121740 | 22 | 180 | 1.6 | 6.4 | 0.00 | 0.10 | 0.00 | 90 | 1011.9 |
| 20260901121234 | 22 | 186 | 3.2 | 9.7 | 0.00 | 0.10 | 0.00 | 90 | 1011.9 |
| 20260901120728 | 22 | 219 | 3.2 | 9.7 | 0.00 | 0.10 | 0.00 | 90 | 1011.9 |
| 20260901120218 | 22 | 215 | 3.2 | 8.0 | 0.00 | 0.10 | 0.00 | 90 | 1011.9 |
| 20260901115716 | 22 | 225 | 3.2 | 8.0 | 0.00 | 0.10 | 0.00 | 91 | 1011.6 |
| 20260901115212 | 22 | 221 | 3.2 | 9.7 | 0.00 | 0.10 | 0.00 | 91 | 1011.6 |
| 20260901114930 | 22 | 216 | 3.2 | 9.7 | 0.00 | 0.10 | 0.00 | 91 | 1011.6 |
| 20260901114159 | 22 | 185 | 3.2 | 6.4 | 0.00 | 0.10 | 0.00 | 91 | 1011.6 |
| 20260901113652 | 22 | 163 | 3.2 | 8.0 | 0.00 | 0.10 | 0.00 | 91 | 1011.6 |
| 20260901113147 | 22 | 167 | 3.2 | 8.0 | 0.00 | 0.10 | 0.00 | 91 | 1011.6 |
| 20260901112635 | 22 | 208 | 3.2 | 6.4 | 0.00 | 0.10 | 0.00 | 91 | 1011.4 |
| 20260901112134 | 22 | 220 | 1.6 | 6.4 | 0.00 | 0.10 | 0.00 | 91 | 1011.4 |
| 20260901111629 | 22 | 211 | 1.6 | 6.4 | 0.00 | 0.10 | 0.00 | 91 | 1011.4 |
| 20260901111123 | 22 | 216 | 1.6 | 6.4 | 0.00 | 0.10 | 0.00 | 91 | 1011.3 |
| 20260901110617 | 22 | 181 | 1.6 | 8.0 | 0.00 | 0.10 | 0.00 | 91 | 1011.3 |
| 20260901110330 | 22 | 186 | 1.6 | 8.0 | 0.00 | 0.10 | 0.00 | 91 | 1011.3 |
| 20260901105604 | 22 | 220 | 1.6 | 4.8 | 0.00 | 0.10 | 0.00 | 91 | 1011.4 |
| 20260901105100 | 22 | 209 | 3.2 | 6.4 | 0.00 | 0.10 | 0.00 | 90 | 1011.4 |
| 20260901104552 | 22 | 213 | 3.2 | 6.4 | 0.00 | 0.10 | 0.00 | 90 | 1011.4 |
| 20260901104047 | 22 | 197 | 3.2 | 8.0 | 0.00 | 0.10 | 0.00 | 90 | 1010.8 |
| 20260901103537 | 23 | 202 | 3.2 | 8.0 | 0.00 | 0.10 | 0.00 | 89 | 1010.8 |
| 20260901103036 | 23 | 90 | 1.6 | 4.8 | 0.00 | 0.10 | 0.00 | 89 | 1010.8 |
| 20260901102528 | 23 | 194 | 1.6 | 6.4 | 0.00 | 0.10 | 0.00 | 88 | 1011.5 |
| 20260901102112 | 23 | 233 | 1.6 | 6.4 | 0.00 | 0.10 | 0.00 | 88 | 1011.5 |
| 20260901101020 | 23 | 231 | 1.6 | 6.4 | 0.00 | 0.10 | 0.00 | 88 | 1011.4 |
| 20260901100521 | 23 | 255 | 1.6 | 6.4 | 0.00 | 0.10 | 0.00 | 88 | 1011.4 |
| 20260901100019 | 23 | 221 | 0.0 | 3.2 | 0.00 | 0.10 | 0.00 | 88 | 1011.4 |
| 20260901095517 | 23 | 218 | 1.6 | 4.8 | 0.00 | 0.10 | 0.00 | 88 | 1011.2 |
| 20260901095018 | 23 | 218 | 1.6 | 4.8 | 0.00 | 0.10 | 0.00 | 88 | 1011.2 |
| 20260901094518 | 23 | 227 | 1.6 | 4.8 | 0.00 | 0.10 | 0.00 | 88 | 1011.2 |
| 20260901094018 | 23 | 227 | 1.6 | 9.7 | 0.00 | 0.10 | 0.00 | 88 | 1010.9 |
| 20260901093739 | 23 | 212 | 3.2 | 9.7 | 0.00 | 0.10 | 0.00 | 88 | 1010.9 |
| 20260901093019 | 23 | 222 | 1.6 | 6.4 | 0.00 | 0.10 | 0.00 | 88 | 1010.9 |
| 20260901092512 | 23 | 227 | 1.6 | 6.4 | 0.00 | 0.10 | 0.00 | 88 | 1010.9 |
| 20260901092000 | 23 | 216 | 1.6 | 4.8 | 0.00 | 0.10 | 0.00 | 88 | 1010.9 |
| 20260901091447 | 23 | 201 | 1.6 | 4.8 | 0.00 | 0.10 | 0.00 | 88 | 1010.9 |
| 20260901090938 | 23 | 218 | 1.6 | 4.8 | 0.00 | 0.10 | 0.00 | 87 | 1010.9 |
| 20260901090433 | 23 | 184 | 1.6 | 4.8 | 0.00 | 0.10 | 0.00 | 87 | 1010.9 |
| 20260901085926 | 23 | 190 | 1.6 | 4.8 | 0.00 | 0.10 | 0.00 | 87 | 1011.1 |
| 20260901085417 | 23 | 194 | 1.6 | 8.0 | 0.00 | 0.10 | 0.00 | 87 | 1011.1 |
| 20260901084913 | 23 | 244 | 3.2 | 8.0 | 0.00 | 0.10 | 0.00 | 86 | 1011.1 |
| 20260901084407 | 23 | 232 | 4.8 | 11.3 | 0.00 | 0.10 | 0.00 | 86 | 1010.9 |
| 20260901083902 | 23 | 213 | 6.4 | 11.3 | 0.00 | 0.10 | 0.00 | 85 | 1010.9 |
| 20260901083356 | 23 | 217 | 6.4 | 11.3 | 0.00 | 0.10 | 0.00 | 85 | 1010.9 |
| 20260901082850 | 23 | 188 | 6.4 | 11.3 | 0.00 | 0.10 | 0.00 | 84 | 1010.9 |
| 20260901082344 | 23 | 207 | 6.4 | 11.3 | 0.00 | 0.10 | 0.00 | 85 | 1010.9 |
| 20260901081832 | 23 | 217 | 4.8 | 11.3 | 0.00 | 0.10 | 0.00 | 85 | 1010.9 |
| 20260901081330 | 23 | 227 | 4.8 | 9.7 | 0.00 | 0.10 | 0.00 | 85 | 1010.8 |
| 20260901080824 | 23 | 221 | 4.8 | 11.3 | 0.00 | 0.10 | 0.00 | 85 | 1010.8 |
| 20260901080314 | 23 | 186 | 4.8 | 11.3 | 0.00 | 0.10 | 0.00 | 85 | 1010.8 |
| 20260901080036 | 23 | 222 | 4.8 | 12.9 | 0.00 | 0.10 | 0.00 | 85 | 1010.8 |
| 20260901075307 | 23 | 221 | 4.8 | 12.9 | 0.00 | 0.10 | 0.00 | 85 | 1010.8 |
| 20260901074759 | 23 | 232 | 6.4 | 9.7 | 0.00 | 0.10 | 0.00 | 85 | 1010.8 |
| 20260901074255 | 23 | 223 | 4.8 | 9.7 | 0.00 | 0.10 | 0.00 | 85 | 1010.8 |
| 20260901073744 | 23 | 215 | 4.8 | 9.7 | 0.00 | 0.10 | 0.00 | 85 | 1010.8 |
| 20260901073238 | 23 | 226 | 4.8 | 9.7 | 0.00 | 0.10 | 0.00 | 85 | 1010.8 |
| 20260901072732 | 23 | 210 | 4.8 | 9.7 | 0.00 | 0.10 | 0.00 | 85 | 1010.8 |
| 20260901072231 | 23 | 232 | 4.8 | 9.7 | 0.00 | 0.10 | 0.00 | 85 | 1010.8 |
| 20260901071723 | 23 | 215 | 4.8 | 9.7 | 0.00 | 0.10 | 0.00 | 85 | 1010.8 |
| 20260901071218 | 23 | 213 | 6.4 | 12.9 | 0.00 | 0.10 | 0.00 | 85 | 1010.7 |
| 20260901070712 | 23 | 229 | 6.4 | 12.9 | 0.00 | 0.10 | 0.00 | 85 | 1010.7 |
| 20260901070201 | 23 | 236 | 4.8 | 9.7 | 0.00 | 0.10 | 0.00 | 85 | 1010.7 |
| 20260901065701 | 23 | 224 | 6.4 | 11.3 | 0.00 | 0.10 | 0.00 | 85 | 1010.7 |
| 20260901065238 | 23 | 229 | 6.4 | 11.3 | 0.00 | 0.10 | 0.00 | 85 | 1010.7 |
| 20260901064141 | 24 | 239 | 6.4 | 11.3 | 0.00 | 0.10 | 0.00 | 85 | 1010.4 |
| 20260901063631 | 24 | 248 | 6.4 | 11.3 | 0.00 | 0.10 | 0.00 | 84 | 1010.4 |
| 20260901063129 | 24 | 234 | 6.4 | 11.3 | 0.00 | 0.10 | 0.00 | 84 | 1010.4 |
| 20260901062622 | 24 | 216 | 6.4 | 12.9 | 0.00 | 0.10 | 0.00 | 84 | 1010.7 |
| 20260901062116 | 24 | 213 | 6.4 | 11.3 | 0.00 | 0.10 | 0.00 | 84 | 1010.7 |
| 20260901061610 | 24 | 216 | 6.4 | 11.3 | 0.00 | 0.10 | 0.00 | 84 | 1010.7 |
| 20260901061059 | 24 | 250 | 4.8 | 11.3 | 0.00 | 0.10 | 0.00 | 84 | 1010.7 |
| 20260901060906 | 24 | 228 | 4.8 | 9.7 | 0.00 | 0.10 | 0.00 | 84 | 1010.7 |
| 20260901055543 | 24 | 221 | 3.2 | 8.0 | 0.00 | 0.10 | 0.00 | 84 | 1010.8 |
| 20260901055043 | 24 | 220 | 3.2 | 11.3 | 0.00 | 0.10 | 0.00 | 84 | 1010.8 |
| 20260901054802 | 24 | 224 | 4.8 | 11.3 | 0.00 | 0.10 | 0.00 | 84 | 1010.8 |
| 20260901054042 | 24 | 223 | 4.8 | 9.7 | 0.00 | 0.10 | 0.00 | 84 | 1010.8 |
| 20260901053543 | 24 | 202 | 4.8 | 9.7 | 0.00 | 0.10 | 0.00 | 84 | 1010.8 |
| 20260901053043 | 25 | 221 | 4.8 | 8.0 | 0.00 | 0.10 | 0.00 | 84 | 1010.8 |
| 20260901052542 | 25 | 203 | 4.8 | 8.0 | 0.00 | 0.10 | 0.00 | 84 | 1010.8 |
| 20260901052042 | 25 | 223 | 4.8 | 9.7 | 0.00 | 0.10 | 0.00 | 84 | 1010.8 |
| 20260901051801 | 25 | 215 | 6.4 | 11.3 | 0.00 | 0.10 | 0.00 | 83 | 1010.8 |
| 20260901051037 | 25 | 209 | 6.4 | 11.3 | 0.00 | 0.10 | 0.00 | 83 | 1010.8 |
| 20260901050747 | 25 | 197 | 6.4 | 11.3 | 0.00 | 0.10 | 0.00 | 83 | 1010.8 |
| 20260901050017 | 25 | 218 | 4.8 | 11.3 | 0.00 | 0.10 | 0.00 | 83 | 1010.8 |
| 20260901045508 | 25 | 222 | 4.8 | 11.3 | 0.00 | 0.10 | 0.10 | 83 | 1010.8 |
| 20260901045001 | 25 | 232 | 6.4 | 12.9 | 0.00 | 0.10 | 0.10 | 83 | 1010.8 |
| 20260901044456 | 25 | 203 | 6.4 | 12.9 | 0.00 | 0.10 | 0.10 | 82 | 1010.8 |
| 20260901043956 | 25 | 238 | 6.4 | 12.9 | 0.00 | 0.10 | 0.10 | 82 | 1010.8 |
| 20260901043456 | 25 | 225 | 6.4 | 12.9 | 0.00 | 0.10 | 0.10 | 82 | 1010.8 |
| 20260901042956 | 25 | 215 | 6.4 | 12.9 | 0.00 | 0.10 | 0.10 | 82 | 1010.8 |
| 20260901042456 | 25 | 223 | 6.4 | 12.9 | 0.00 | 0.10 | 0.10 | 82 | 1010.8 |
| 20260901041958 | 25 | 228 | 6.4 | 11.3 | 0.00 | 0.10 | 0.10 | 81 | 1010.8 |
| 20260901041456 | 25 | 224 | 6.4 | 14.5 | 0.00 | 0.10 | 0.10 | 81 | 1010.8 |
| 20260901040959 | 26 | 211 | 4.8 | 14.5 | 0.00 | 0.10 | 0.10 | 81 | 1010.8 |
| 20260901040459 | 26 | 236 | 4.8 | 11.3 | 0.00 | 0.10 | 0.10 | 81 | 1010.8 |
| 20260901035953 | 26 | 207 | 4.8 | 12.9 | 0.00 | 0.10 | 0.10 | 81 | 1010.7 |
| 20260901035442 | 26 | 209 | 4.8 | 12.9 | 0.00 | 0.10 | 0.10 | 81 | 1010.7 |
| 20260901034930 | 26 | 228 | 4.8 | 9.7 | 0.00 | 0.10 | 0.10 | 81 | 1010.7 |
| 20260901034418 | 26 | 224 | 4.8 | 9.7 | 0.00 | 0.10 | 0.10 | 81 | 1010.7 |
| 20260901033919 | 26 | 218 | 4.8 | 12.9 | 0.00 | 0.10 | 0.10 | 81 | 1010.7 |
| 20260901033409 | 26 | 205 | 4.8 | 12.9 | 0.00 | 0.10 | 0.10 | 81 | 1010.7 |
| 20260901032903 | 26 | 230 | 4.8 | 9.7 | 0.00 | 0.10 | 0.10 | 81 | 1010.7 |
| 20260901032357 | 26 | 229 | 4.8 | 11.3 | 0.00 | 0.10 | 0.10 | 81 | 1010.7 |
| 20260901031846 | 26 | 244 | 4.8 | 12.9 | 0.00 | 0.10 | 0.10 | 81 | 1010.7 |
| 20260901031345 | 26 | 220 | 4.8 | 12.9 | 0.00 | 0.10 | 0.10 | 81 | 1010.8 |
| 20260901030840 | 26 | 192 | 4.8 | 12.9 | 0.00 | 0.10 | 0.10 | 81 | 1010.8 |
| 20260901030333 | 26 | 184 | 4.8 | 9.7 | 0.00 | 0.10 | 0.10 | 81 | 1010.8 |
| 20260901025827 | 26 | 149 | 3.2 | 9.7 | 0.00 | 0.10 | 0.10 | 81 | 1011.0 |
| 20260901025321 | 26 | 212 | 4.8 | 9.7 | 0.00 | 0.10 | 0.10 | 81 | 1011.0 |
| 20260901024815 | 26 | 185 | 4.8 | 9.7 | 0.00 | 0.10 | 0.10 | 81 | 1011.0 |
| 20260901024304 | 26 | 180 | 3.2 | 9.7 | 0.00 | 0.10 | 0.10 | 81 | 1010.9 |
| 20260901023803 | 26 | 191 | 3.2 | 9.7 | 0.00 | 0.10 | 0.10 | 82 | 1010.9 |
| 20260901023258 | 26 | 191 | 3.2 | 8.0 | 0.00 | 0.10 | 0.10 | 82 | 1010.9 |
| 20260901022753 | 26 | 238 | 3.2 | 9.7 | 0.00 | 0.10 | 0.10 | 82 | 1010.9 |
| 20260901022246 | 26 | 213 | 3.2 | 9.7 | 0.00 | 0.10 | 0.10 | 82 | 1010.9 |
| 20260901021736 | 26 | 230 | 4.8 | 11.3 | 0.00 | 0.10 | 0.10 | 81 | 1010.9 |
| 20260901021458 | 26 | 244 | 4.8 | 11.3 | 0.00 | 0.10 | 0.10 | 81 | 1010.9 |
| 20260901020950 | 26 | 230 | 4.8 | 11.3 | 0.00 | 0.10 | 0.10 | 81 | 1010.9 |
| 20260901020221 | 26 | 208 | 4.8 | 11.3 | 0.00 | 0.10 | 0.10 | 80 | 1010.9 |
| 20260901015715 | 26 | 207 | 4.8 | 11.3 | 0.00 | 0.10 | 0.10 | 80 | 1010.8 |
| 20260901015209 | 27 | 169 | 4.8 | 16.1 | 0.00 | 0.10 | 0.10 | 79 | 1010.8 |
| 20260901014705 | 27 | 218 | 4.8 | 16.1 | 0.00 | 0.10 | 0.10 | 79 | 1010.8 |
| 20260901014154 | 27 | 187 | 4.8 | 11.3 | 0.00 | 0.10 | 0.10 | 79 | 1010.5 |
| 20260901013651 | 27 | 212 | 4.8 | 11.3 | 0.00 | 0.10 | 0.10 | 78 | 1010.5 |
| 20260901013147 | 27 | 246 | 4.8 | 14.5 | 0.00 | 0.10 | 0.10 | 78 | 1010.5 |
| 20260901012639 | 27 | 227 | 4.8 | 14.5 | 0.00 | 0.10 | 0.10 | 79 | 1010.5 |
| 20260901012134 | 27 | 213 | 4.8 | 12.9 | 0.00 | 0.10 | 0.10 | 80 | 1010.5 |
| 20260901011845 | 27 | 241 | 4.8 | 12.9 | 0.00 | 0.10 | 0.10 | 80 | 1010.5 |
| 20260901011120 | 27 | 188 | 4.8 | 9.7 | 0.03 | 0.10 | 0.10 | 81 | 1010.2 |
| 20260901010834 | 26 | 250 | 4.8 | 12.9 | 0.10 | 0.10 | 0.10 | 81 | 1010.2 |
| 20260901010108 | 26 | 234 | 4.8 | 14.5 | 0.10 | 0.10 | 0.10 | 82 | 1010.2 |
| 20260901005603 | 26 | 244 | 6.4 | 14.5 | 0.10 | 0.10 | 0.10 | 82 | 1010.0 |
| 20260901005056 | 26 | 222 | 4.8 | 17.7 | 0.10 | 0.10 | 0.10 | 83 | 1010.0 |
| 20260901004551 | 26 | 213 | 3.2 | 16.1 | 0.10 | 0.10 | 0.10 | 85 | 1010.0 |
| 20260901004039 | 26 | 160 | 3.2 | 11.3 | 0.10 | 0.10 | 0.10 | 86 | 1010.0 |
| 20260901003536 | 26 | 184 | 3.2 | 11.3 | 0.10 | 0.10 | 0.10 | 86 | 1010.0 |
| 20260901003032 | 26 | 141 | 4.8 | 14.5 | 0.10 | 0.10 | 0.10 | 86 | 1010.0 |
| 20260901002755 | 26 | 221 | 4.8 | 14.5 | 0.10 | 0.10 | 0.10 | 86 | 1009.7 |
| 20260901002032 | 26 | 213 | 4.8 | 14.5 | 0.10 | 0.10 | 0.10 | 85 | 1009.7 |
| 20260901001531 | 26 | 234 | 6.4 | 16.1 | 0.10 | 0.10 | 0.10 | 84 | 1009.7 |
| 20260901001031 | 27 | 140 | 8.0 | 29.0 | 0.08 | 0.08 | 0.08 | 81 | 1012.3 |
| 20260901000532 | 28 | 273 | 3.2 | 29.0 | 0.00 | 0.00 | 0.00 | 79 | 1012.3 |
| 20260901000031 | 28 | 238 | 0.0 | 4.8 | 0.00 | 0.00 | 0.00 | 79 | 1012.3 |
| 20260831235748 | 28 | 263 | 0.0 | 4.8 | 0.00 | 0.00 | 0.00 | 78 | 1010.9 |
| 20260831235250 | 29 | 231 | 0.0 | 3.2 | 0.00 | 0.00 | 0.00 | 77 | 1010.9 |
| 20260831234526 | 30 | 184 | 0.0 | 1.6 | 0.00 | 0.00 | 0.00 | 75 | 1010.9 |
| 20260831234014 | 30 | 159 | 0.0 | 1.6 | 0.00 | 0.00 | 0.00 | 73 | 1010.5 |
| 20260831233504 | 30 | 214 | 0.0 | 4.8 | 0.00 | 0.00 | 0.00 | 72 | 1010.5 |
| 20260831232959 | 30 | 146 | 1.6 | 6.4 | 0.00 | 0.00 | 0.00 | 72 | 1010.5 |
| 20260831232713 | 31 | 198 | 1.6 | 6.4 | 0.00 | 0.00 | 0.00 | 72 | 1010.4 |
| 20260831231945 | 31 | 217 | 1.6 | 8.0 | 0.00 | 0.00 | 0.00 | 72 | 1010.4 |
| 20260831231441 | 31 | 216 | 0.0 | 6.4 | 0.00 | 0.00 | 0.00 | 72 | 1010.7 |
| 20260831230933 | 31 | 215 | 0.0 | 0.0 | 0.00 | 0.00 | 0.00 | 72 | 1010.7 |
| 20260831230652 | 31 | 185 | 1.6 | 8.0 | 0.00 | 0.00 | 0.00 | 72 | 1010.7 |
| 20260831225918 | 31 | 213 | 3.2 | 8.0 | 0.00 | 0.00 | 0.00 | 72 | 1010.4 |
| 20260831225417 | 31 | 236 | 4.8 | 9.7 | 0.00 | 0.00 | 0.00 | 71 | 1010.4 |
| 20260831225135 | 31 | 227 | 4.8 | 11.3 | 0.00 | 0.00 | 0.00 | 70 | 1010.4 |
| 20260831224622 | 31 | 234 | 4.8 | 11.3 | 0.00 | 0.00 | 0.00 | 69 | 1010.1 |
| 20260831224117 | 32 | 221 | 4.8 | 14.5 | 0.00 | 0.00 | 0.00 | 68 | 1010.1 |
| 20260831223346 | 32 | 193 | 6.4 | 14.5 | 0.00 | 0.00 | 0.00 | 68 | 1010.1 |
| 20260831222845 | 32 | 198 | 6.4 | 14.5 | 0.00 | 0.00 | 0.00 | 68 | 1009.9 |
| 20260831222605 | 32 | 227 | 6.4 | 14.5 | 0.00 | 0.00 | 0.00 | 67 | 1009.9 |
| 20260831221833 | 32 | 221 | 8.0 | 17.7 | 0.00 | 0.00 | 0.00 | 67 | 1009.9 |
| 20260831221327 | 32 | 229 | 8.0 | 17.7 | 0.00 | 0.00 | 0.00 | 66 | 1009.7 |
| 20260831220817 | 32 | 173 | 6.4 | 19.3 | 0.00 | 0.00 | 0.00 | 66 | 1009.7 |
| 20260831220315 | 32 | 221 | 8.0 | 19.3 | 0.00 | 0.00 | 0.00 | 66 | 1009.7 |
| 20260831215805 | 32 | 217 | 9.7 | 17.7 | 0.00 | 0.00 | 0.00 | 65 | 1010.2 |
| 20260831215306 | 32 | 239 | 9.7 | 20.9 | 0.00 | 0.00 | 0.00 | 65 | 1010.2 |
| 20260831214758 | 32 | 242 | 11.3 | 25.7 | 0.00 | 0.00 | 0.00 | 64 | 1010.2 |
| 20260831214252 | 32 | 234 | 9.7 | 25.7 | 0.00 | 0.00 | 0.00 | 62 | 1010.0 |
| 20260831213747 | 32 | 227 | 9.7 | 20.9 | 0.00 | 0.00 | 0.00 | 63 | 1010.0 |
| 20260831213453 | 32 | 238 | 9.7 | 22.5 | 0.00 | 0.00 | 0.00 | 62 | 1010.0 |
| 20260831212734 | 32 | 225 | 9.7 | 22.5 | 0.00 | 0.00 | 0.00 | 62 | 1010.1 |
| 20260831212223 | 32 | 207 | 8.0 | 17.7 | 0.00 | 0.00 | 0.00 | 64 | 1010.1 |
| 20260831211717 | 32 | 217 | 8.0 | 16.1 | 0.00 | 0.00 | 0.00 | 65 | 1010.1 |
| 20260831211211 | 32 | 209 | 8.0 | 19.3 | 0.00 | 0.00 | 0.00 | 65 | 1010.2 |
| 20260831210705 | 32 | 227 | 6.4 | 19.3 | 0.00 | 0.00 | 0.00 | 66 | 1010.2 |
| 20260831210154 | 32 | 169 | 6.4 | 16.1 | 0.00 | 0.00 | 0.00 | 66 | 1010.2 |
| 20260831205653 | 32 | 234 | 6.4 | 16.1 | 0.00 | 0.00 | 0.00 | 66 | 1010.2 |
| 20260831205408 | 32 | 207 | 9.7 | 17.7 | 0.00 | 0.00 | 0.00 | 65 | 1010.2 |
| 20260831204859 | 32 | 251 | 11.3 | 22.5 | 0.00 | 0.00 | 0.00 | 65 | 1010.2 |
| 20260831204135 | 32 | 198 | 9.7 | 24.1 | 0.00 | 0.00 | 0.00 | 63 | 1009.7 |
| 20260831203629 | 32 | 248 | 9.7 | 24.1 | 0.00 | 0.00 | 0.00 | 63 | 1009.7 |
| 20260831203123 | 32 | 211 | 9.7 | 22.5 | 0.00 | 0.00 | 0.00 | 63 | 1009.7 |
| 20260831202615 | 32 | 169 | 8.0 | 20.9 | 0.00 | 0.00 | 0.00 | 63 | 1009.7 |
| 20260831202107 | 32 | 177 | 8.0 | 22.5 | 0.00 | 0.00 | 0.00 | 63 | 1009.7 |
| 20260831201555 | 32 | 212 | 8.0 | 22.5 | 0.00 | 0.00 | 0.00 | 64 | 1009.7 |
| 20260831201042 | 32 | 194 | 6.4 | 17.7 | 0.00 | 0.00 | 0.00 | 64 | 1009.9 |
| 20260831200541 | 32 | 207 | 6.4 | 20.9 | 0.00 | 0.00 | 0.00 | 64 | 1009.9 |
| 20260831200041 | 32 | 197 | 8.0 | 20.9 | 0.00 | 0.00 | 0.00 | 63 | 1009.9 |
| 20260831195543 | 32 | 189 | 8.0 | 20.9 | 0.00 | 0.00 | 0.00 | 63 | 1010.1 |
| 20260831195039 | 32 | 184 | 9.7 | 22.5 | 0.00 | 0.00 | 0.00 | 63 | 1010.1 |
| 20260831194541 | 32 | 208 | 11.3 | 22.5 | 0.00 | 0.00 | 0.00 | 64 | 1010.1 |
| 20260831194038 | 32 | 220 | 9.7 | 20.9 | 0.00 | 0.00 | 0.00 | 62 | 1010.2 |
| 20260831193538 | 32 | 198 | 9.7 | 24.1 | 0.00 | 0.00 | 0.00 | 64 | 1010.2 |
| 20260831193038 | 32 | 233 | 11.3 | 29.0 | 0.00 | 0.00 | 0.00 | 63 | 1010.2 |
| 20260831192538 | 32 | 223 | 9.7 | 29.0 | 0.00 | 0.00 | 0.00 | 62 | 1010.2 |
| 20260831192036 | 32 | 246 | 6.4 | 22.5 | 0.00 | 0.00 | 0.00 | 62 | 1010.2 |
| 20260831191530 | 32 | 182 | 8.0 | 17.7 | 0.00 | 0.00 | 0.00 | 64 | 1010.2 |
| 20260831191506 | 32 | 221 | 8.0 | 22.5 | 0.00 | 0.00 | 0.00 | 62 | 1010.2 |
| 20260831190743 | 32 | 200 | 6.4 | 22.5 | 0.00 | 0.00 | 0.00 | 62 | 1010.2 |
| 20260831190013 | 31 | 223 | 8.0 | 22.5 | 0.00 | 0.00 | 0.00 | 61 | 1010.2 |
| 20260831185502 | 31 | 227 | 8.0 | 22.5 | 0.00 | 0.00 | 0.00 | 60 | 1010.3 |
| 20260831185000 | 31 | 265 | 8.0 | 16.1 | 0.00 | 0.00 | 0.00 | 61 | 1010.3 |
| 20260831184456 | 31 | 286 | 8.0 | 16.1 | 0.00 | 0.00 | 0.00 | 61 | 1010.3 |
| 20260831183949 | 31 | 197 | 6.4 | 16.1 | 0.00 | 0.00 | 0.00 | 62 | 1010.4 |
| 20260831183439 | 31 | 154 | 8.0 | 22.5 | 0.00 | 0.00 | 0.00 | 63 | 1010.4 |
| 20260831182934 | 31 | 239 | 8.0 | 22.5 | 0.00 | 0.00 | 0.00 | 63 | 1010.8 |
| 20260831182430 | 30 | 169 | 8.0 | 16.1 | 0.00 | 0.00 | 0.00 | 64 | 1010.8 |
| 20260831181925 | 30 | 171 | 8.0 | 17.7 | 0.00 | 0.00 | 0.00 | 64 | 1010.8 |
| 20260831181418 | 30 | 221 | 8.0 | 19.3 | 0.00 | 0.00 | 0.00 | 63 | 1010.9 |
| 20260831180912 | 30 | 213 | 8.0 | 19.3 | 0.00 | 0.00 | 0.00 | 64 | 1010.9 |
| 20260831180401 | 30 | 214 | 8.0 | 20.9 | 0.00 | 0.00 | 0.00 | 65 | 1010.9 |
| 20260831175900 | 30 | 128 | 8.0 | 20.9 | 0.00 | 0.00 | 0.00 | 63 | 1011.2 |
| 20260831175356 | 30 | 210 | 6.4 | 19.3 | 0.00 | 0.00 | 0.00 | 65 | 1011.2 |
| 20260831175112 | 29 | 186 | 8.0 | 20.9 | 0.00 | 0.00 | 0.00 | 65 | 1011.2 |
| 20260831174337 | 29 | 181 | 8.0 | 20.9 | 0.00 | 0.00 | 0.00 | 65 | 1011.5 |
| 20260831174326 | 29 | 177 | 6.4 | 19.3 | 0.00 | 0.00 | 0.00 | 66 | 1011.5 |
| 20260831173331 | 28 | 232 | 6.4 | 19.3 | 0.00 | 0.00 | 0.00 | 67 | 1011.5 |
| 20260831172821 | 28 | 229 | 4.8 | 19.3 | 0.00 | 0.00 | 0.00 | 70 | 1011.9 |
| 20260831172320 | 27 | 184 | 4.8 | 12.9 | 0.00 | 0.00 | 0.00 | 72 | 1011.9 |
| 20260831171813 | 27 | 203 | 4.8 | 14.5 | 0.00 | 0.00 | 0.00 | 73 | 1011.9 |
| 20260831171527 | 27 | 131 | 3.2 | 14.5 | 0.00 | 0.00 | 0.00 | 74 | 1012.0 |
| 20260831170801 | 26 | 232 | 3.2 | 12.9 | 0.00 | 0.00 | 0.00 | 75 | 1012.0 |
| 20260831170258 | 26 | 161 | 4.8 | 12.9 | 0.00 | 0.00 | 0.00 | 75 | 1012.0 |
| 20260831165758 | 26 | 173 | 3.2 | 12.9 | 0.00 | 0.00 | 0.00 | 76 | 1012.3 |
| 20260831165256 | 25 | 188 | 3.2 | 11.3 | 0.00 | 0.00 | 0.00 | 78 | 1012.3 |
| 20260831165012 | 25 | 123 | 1.6 | 4.8 | 0.00 | 0.00 | 0.00 | 80 | 1012.3 |
| 20260831164738 | 25 | 116 | 1.6 | 4.8 | 0.00 | 0.00 | 0.00 | 80 | 1012.5 |
| 20260831163754 | 24 | 117 | 1.6 | 4.8 | 0.00 | 0.00 | 0.00 | 80 | 1012.5 |
| 20260831163253 | 24 | 109 | 1.6 | 4.8 | 0.00 | 0.00 | 0.00 | 80 | 1012.5 |
| 20260831162751 | 24 | 98 | 1.6 | 4.8 | 0.00 | 0.00 | 0.00 | 80 | 1012.6 |
| 20260831162253 | 24 | 107 | 1.6 | 4.8 | 0.00 | 0.00 | 0.00 | 80 | 1012.6 |
| 20260831161752 | 24 | 108 | 1.6 | 4.8 | 0.00 | 0.00 | 0.00 | 79 | 1012.6 |
| 20260831161252 | 24 | 132 | 1.6 | 9.7 | 0.00 | 0.00 | 0.00 | 78 | 1012.8 |
| 20260831160751 | 24 | 164 | 1.6 | 9.7 | 0.00 | 0.00 | 0.00 | 79 | 1012.8 |
| 20260831160250 | 24 | 170 | 3.2 | 4.8 | 0.00 | 0.00 | 0.00 | 79 | 1012.8 |
| 20260831155753 | 24 | 158 | 3.2 | 6.4 | 0.00 | 0.00 | 0.00 | 78 | 1012.7 |
| 20260831155254 | 23 | 174 | 3.2 | 6.4 | 0.00 | 0.00 | 0.00 | 78 | 1012.7 |
| 20260831154750 | 23 | 97 | 3.2 | 11.3 | 0.00 | 0.00 | 0.00 | 79 | 1012.7 |
| 20260831154250 | 23 | 134 | 3.2 | 11.3 | 0.00 | 0.00 | 0.00 | 78 | 1012.7 |
| 20260831153751 | 23 | 111 | 3.2 | 8.0 | 0.00 | 0.00 | 0.00 | 80 | 1012.7 |
| 20260831153249 | 23 | 118 | 3.2 | 8.0 | 0.00 | 0.00 | 0.00 | 80 | 1012.7 |
| 20260831153014 | 23 | 167 | 3.2 | 8.0 | 0.00 | 0.00 | 0.00 | 82 | 1012.8 |
| 20260831152250 | 23 | 141 | 3.2 | 6.4 | 0.00 | 0.00 | 0.00 | 82 | 1012.8 |
| 20260831152012 | 23 | 120 | 1.6 | 4.8 | 0.00 | 0.00 | 0.00 | 82 | 1012.8 |
| 20260831151250 | 23 | 136 | 0.0 | 4.8 | 0.00 | 0.00 | 0.00 | 82 | 1012.9 |
| 20260831151009 | 22 | 122 | 1.6 | 8.0 | 0.00 | 0.00 | 0.00 | 82 | 1012.9 |
| 20260831150249 | 22 | 121 | 3.2 | 8.0 | 0.00 | 0.00 | 0.00 | 82 | 1012.9 |
| 20260831145959 | 22 | 122 | 3.2 | 8.0 | 0.00 | 0.00 | 0.00 | 83 | 1013.0 |
| 20260831145236 | 22 | 118 | 0.0 | 8.0 | 0.00 | 0.00 | 0.00 | 82 | 1013.0 |
| 20260831144729 | 22 | 138 | 0.0 | 0.0 | 0.00 | 0.00 | 0.00 | 83 | 1013.0 |
| 20260831144702 | 22 | 130 | 0.0 | 1.6 | 0.00 | 0.00 | 0.00 | 82 | 1013.0 |
| 20260831143718 | 22 | 123 | 1.6 | 8.0 | 0.00 | 0.00 | 0.00 | 83 | 1013.0 |
| 20260831143207 | 22 | 109 | 1.6 | 8.0 | 0.00 | 0.00 | 0.00 | 84 | 1013.0 |
| 20260831142705 | 22 | 112 | 1.6 | 4.8 | 0.00 | 0.00 | 0.00 | 84 | 1013.2 |
| 20260831142201 | 22 | 90 | 1.6 | 6.4 | 0.00 | 0.00 | 0.00 | 84 | 1013.2 |
| 20260831141654 | 22 | 103 | 3.2 | 8.0 | 0.00 | 0.00 | 0.00 | 83 | 1013.2 |
| 20260831141413 | 22 | 339 | 1.6 | 8.0 | 0.00 | 0.00 | 0.00 | 82 | 1012.5 |